This is the latest recevied weather packets stored in our database for station/object KE0PRS. If no packets are shown the sender has not sent any weather packets the latest 10 day(s).
| Time | Temp. | Humidity | Pressure | Rain* | Wind** | Luminosity | Snow |
|---|---|---|---|---|---|---|---|
| 1787751735 | 22.22° C | 96% | 1020.8 hPa | 0 mm | - | 113 W/m² | - |
| 1787751431 | 21.67° C | 96% | 1020.9 hPa | 0 mm | - | 75 W/m² | - |
| 1787751126 | 21.67° C | 96% | 1020.8 hPa | 0 mm | - | 81 W/m² | - |
| 1787750822 | 21.67° C | 97% | 1020.9 hPa | 0 mm | - | 96 W/m² | - |
| 1787750521 | 21.67° C | 96% | 1020.6 hPa | 0 mm | - | 69 W/m² | - |
| 1787750216 | 21.11° C | 96% | 1020.8 hPa | 0 mm | - | 52 W/m² | - |
| 1787749912 | 21.11° C | 96% | 1020.7 hPa | 0 mm | - | 66 W/m² | - |
| 1787749608 | 21.11° C | 96% | 1020.7 hPa | 0 mm | - | 68 W/m² | - |
| 1787749304 | 21.11° C | 96% | 1020.4 hPa | 0 mm | - | 54 W/m² | - |
| 1787748999 | 21.11° C | 96% | 1020.6 hPa | 0 mm | - | 42 W/m² | - |
| 1787748692 | 20.56° C | 96% | 1020.6 hPa | 0 mm | - | 38 W/m² | - |
| 1787748388 | 20.56° C | 96% | 1020.3 hPa | 0 mm | - | 39 W/m² | - |
| 1787748084 | 20.56° C | 96% | 1020.3 hPa | 0 mm | - | 31 W/m² | - |
| 1787747783 | 20.56° C | 96% | 1020.2 hPa | 0 mm | - | 24 W/m² | - |
| 1787747479 | 20.56° C | 96% | 1020.1 hPa | 0 mm | - | 18 W/m² | - |
| 1787747173 | 20.56° C | 96% | 1019.9 hPa | 0 mm | - | 14 W/m² | - |
| 1787746870 | 20.56° C | 96% | 1020 hPa | 0 mm | - | 11 W/m² | - |
| 1787746569 | 20.56° C | 96% | 1019.9 hPa | 0 mm | - | 7 W/m² | - |
| 1787746263 | 20.56° C | 96% | 1019.8 hPa | 0 mm | - | 5 W/m² | - |
| 1787745962 | 20.56° C | 96% | 1019.6 hPa | 0 mm | - | 3 W/m² | - |
| 1787745661 | 20.56° C | 96% | 1019.7 hPa | 0 mm | - | 2 W/m² | - |
| 1787745356 | 20.56° C | 96% | 1019.7 hPa | 0 mm | - | 1 W/m² | - |
| 1787745055 | 20.56° C | 96% | 1019.6 hPa | 0 mm | - | 0 W/m² | - |
| 1787744751 | 20.56° C | 96% | 1019.5 hPa | 0 mm | - | 0 W/m² | - |
| 1787744448 | 20.56° C | 96% | 1019.7 hPa | 0 mm | - | 0 W/m² | - |
* Rain latest hour (hover to see other rain measurements)
** Current wind speed in m/s (hover to see current wind gust speed)